Date String (YYYY-MM-DD hh:mm:ss) UTC,Instrument flags,absolute air pressure of the measurement (hPa),sample flow rate (lpm),inlet stack bypass flow (lpm),air temperature of the measurement (°C),ambient temperature measured by the external sensor (°C),aerosol sample conditioner tube jacket temperature (°C),OPC LED temperature (°C),internal box temperature (°C),relative humidity of the measurement (%),span deviation,mass concentration of particles derived from Lorenz-Mie calculation of OPC scattering (μg/m³),mass concentration of particles derived from Lorenz-Mie calculation of OPC scattering (μg/m³),mass concentration of particles derived from Lorenz-Mie calculation of OPC scattering (μg/m³)
DateTimeUTC,F1_M11,P_M11,Q1_M11,Q2_M11,T1_M11,T2_M11,T3_M11,T4_M11,T5_M11,U1_M11,ZSPAN_M11,X2_M11,X0_M11,X1_M11
2024-03-27 18:00:00,SystemResetWarning,0827.7,5.00,000.00,020.0,019.5,000.0,028.3,021.7,11.7,0000.0,0001.31,0005.50,0000.90
2024-03-27 18:01:00,SystemResetWarning,0827.7,4.99,000.00,020.0,019.5,000.0,028.3,021.7,12.5,0000.0,0001.27,0005.42,0000.91
2024-03-27 18:02:00,SystemResetWarning,0827.7,5.00,000.00,020.0,019.5,000.0,028.4,021.7,11.8,0000.0,0001.33,0005.54,0000.93
2024-03-27 18:03:00,SystemResetWarning,0827.7,5.00,000.00,020.0,019.5,000.0,028.4,021.7,11.6,0000.0,0001.37,0005.70,0000.95
2024-03-27 18:04:00,SystemResetWarning,0827.7,5.00,000.00,020.0,019.5,000.0,028.4,021.7,11.7,0000.0,0001.39,0005.74,0000.99
2024-03-27 18:05:00,SystemResetWarning,0827.7,5.00,000.00,020.0,019.5,000.0,028.4,021.8,11.4,0000.0,0001.40,0005.75,0001.00
2024-03-27 18:06:00,SystemResetWarning,0827.6,5.00,000.00,020.0,019.5,000.0,028.4,021.8,10.1,0000.0,0001.41,0005.77,0001.00
2024-03-27 18:07:00,SystemResetWarning,0827.6,5.01,000.00,020.0,019.5,000.0,028.4,021.8,10.2,0000.0,0001.37,0003.41,0000.98
2024-03-27 18:08:00,SystemResetWarning,0827.5,5.01,000.00,020.0,019.5,000.0,028.4,021.8,10.5,0000.0,0001.34,0002.42,0000.97
2024-03-27 18:09:00,SystemResetWarning,0827.5,4.99,000.00,020.0,019.5,000.0,028.4,021.8,10.3,0000.0,0001.39,0002.46,0000.97
2024-03-27 18:10:00,SystemResetWarning,0827.5,4.99,000.00,020.1,019.5,000.0,028.4,021.8,10.7,0000.0,0001.42,0002.43,0000.96
2024-03-27 18:11:00,SystemResetWarning,0827.5,4.99,000.00,020.1,019.5,000.0,028.4,021.8,11.7,0000.0,0001.40,0002.41,0000.95
2024-03-27 18:12:00,SystemResetWarning,0827.6,5.01,000.00,020.1,019.5,000.0,028.4,021.8,12.3,0000.0,0001.46,0002.54,0000.96
2024-03-27 18:13:00,SystemResetWarning,0827.7,5.01,000.00,020.1,019.5,000.0,028.4,021.8,12.2,0000.0,0001.51,0002.65,0000.98
2024-03-27 18:14:00,SystemResetWarning,0827.7,5.00,000.00,020.1,019.5,000.0,028.4,021.8,11.8,0000.0,0001.55,0003.90,0001.00
2024-03-27 18:15:00,SystemResetWarning,0827.7,5.00,000.00,020.1,019.5,000.0,028.4,021.8,12.1,0000.0,0001.62,0004.05,0001.00
2024-03-27 18:16:00,SystemResetWarning,0827.7,4.99,000.00,020.1,019.4,000.0,028.4,021.8,11.8,0000.0,0001.62,0004.04,0001.02
2024-03-27 18:17:00,SystemResetWarning,0827.6,5.00,000.00,020.1,019.4,000.0,028.4,021.8,12.0,0000.0,0001.68,0004.19,0001.06
2024-03-27 18:18:00,SystemResetWarning,0827.6,5.01,000.00,020.1,019.4,000.0,028.5,021.8,12.2,0000.0,0001.77,0004.42,0001.11
2024-03-27 18:19:00,SystemResetWarning,0827.7,5.01,000.00,020.1,019.4,000.0,028.5,021.8,12.1,0000.0,0001.88,0004.97,0001.17
2024-03-27 18:20:00,SystemResetWarning,0827.7,5.01,000.00,020.1,019.4,000.0,028.5,021.8,11.6,0000.0,0001.89,0005.00,0001.21
2024-03-27 18:21:00,SystemResetWarning,0827.7,4.99,000.00,020.1,019.4,000.0,028.5,021.8,12.7,0000.0,0001.94,0005.08,0001.25
2024-03-27 18:22:00,SystemResetWarning,0827.6,5.00,000.00,020.1,019.4,000.0,028.5,021.8,11.5,0000.0,0001.97,0005.14,0001.27
2024-03-27 18:23:00,SystemResetWarning,0827.5,5.00,000.00,020.1,019.4,000.0,028.5,021.8,12.1,0000.0,0001.96,0005.08,0001.28
2024-03-27 18:24:00,SystemResetWarning,0827.6,5.00,000.00,020.1,019.5,000.0,028.5,021.8,11.3,0000.0,0001.91,0005.23,0001.27
2024-03-27 18:25:00,SystemResetWarning,0827.5,5.00,000.00,020.1,019.5,000.0,028.5,021.8,10.3,0000.0,0001.90,0004.95,0001.25
2024-03-27 18:26:00,SystemResetWarning,0827.5,5.00,000.00,020.1,019.5,000.0,028.5,021.8,10.8,0000.0,0001.81,0004.32,0001.22
2024-03-27 18:27:00,SystemResetWarning,0827.5,5.00,000.00,020.1,019.5,000.0,028.5,021.8,10.6,0000.0,0001.75,0004.45,0001.18
2024-03-27 18:28:00,SystemResetWarning,0827.7,4.99,000.00,020.1,019.6,000.0,028.5,021.9,11.4,0000.0,0001.67,0004.31,0001.13
2024-03-27 18:29:00,SystemResetWarning,0827.4,5.00,000.00,020.1,019.6,000.0,028.5,021.9,11.8,0000.0,0001.56,0004.09,0001.06
2024-03-27 18:30:00,SystemResetWarning,0827.4,5.01,000.00,020.1,019.6,000.0,028.5,021.9,11.1,0000.0,0001.44,0003.59,0000.99
2024-03-27 18:31:00,SystemResetWarning,0827.4,5.01,000.00,020.1,019.7,000.0,028.5,021.9,12.1,0000.0,0001.42,0003.45,0000.94
2024-03-27 18:32:00,SystemResetWarning,0827.6,5.00,000.00,020.2,019.7,000.0,028.5,021.9,12.9,0000.0,0001.32,0003.28,0000.88
2024-03-27 18:33:00,SystemResetWarning,0827.5,5.00,000.00,020.2,019.7,000.0,028.5,021.9,13.0,0000.0,0001.25,0003.16,0000.85
2024-03-27 18:34:00,SystemResetWarning,0827.5,5.00,000.00,020.2,019.7,000.0,028.5,022.0,12.3,0000.0,0001.25,0003.19,0000.85
2024-03-27 18:35:00,SystemResetWarning,0827.5,5.00,000.00,020.2,019.7,000.0,028.5,022.0,11.7,0000.0,0001.23,0003.13,0000.84
2024-03-27 18:36:00,SystemResetWarning,0827.6,4.99,000.00,020.2,019.7,000.0,028.6,022.0,12.1,0000.0,0001.20,0002.55,0000.84
2024-03-27 18:37:00,SystemResetWarning,0827.5,5.01,000.00,020.2,019.7,000.0,028.6,022.0,11.9,0000.0,0001.16,0002.41,0000.84
2024-03-27 18:38:00,SystemResetWarning,0827.5,5.01,000.00,020.2,019.7,000.0,028.6,022.0,11.8,0000.0,0001.18,0002.17,0000.86
2024-03-27 18:39:00,SystemResetWarning,0827.5,5.01,000.00,020.2,019.7,000.0,028.6,022.0,11.5,0000.0,0001.27,0002.31,0000.89
2024-03-27 18:40:00,SystemResetWarning,0827.5,4.99,000.00,020.2,019.7,000.0,028.6,022.0,11.6,0000.0,0001.36,0002.63,0000.93
2024-03-27 18:41:00,SystemResetWarning,0827.8,4.99,000.00,020.2,019.7,000.0,028.6,022.0,11.1,0000.0,0001.37,0003.13,0000.93
2024-03-27 18:42:00,SystemResetWarning,0827.7,5.00,000.00,020.2,019.7,000.0,028.6,022.0,11.8,0000.0,0001.35,0003.06,0000.92
2024-03-27 18:43:00,SystemResetWarning,0827.4,5.01,000.00,020.3,019.7,000.0,028.6,022.0,11.7,0000.0,0001.37,0003.11,0000.92
2024-03-27 18:44:00,SystemResetWarning,0827.4,5.01,000.00,020.3,019.8,000.0,028.6,022.0,12.1,0000.0,0001.40,0003.14,0000.91
2024-03-27 18:45:00,SystemResetWarning,0827.5,5.00,000.00,020.3,019.8,000.0,028.6,022.0,12.7,0000.0,0001.42,0003.32,0000.92
2024-03-27 18:46:00,SystemResetWarning,0827.5,4.99,000.00,020.3,019.8,000.0,028.6,022.0,12.8,0000.0,0001.44,0003.55,0000.93
2024-03-27 18:47:00,SystemResetWarning,0827.6,5.00,000.00,020.3,019.7,000.0,028.6,022.0,11.5,0000.0,0001.45,0003.67,0000.92
2024-03-27 18:48:00,SystemResetWarning,0827.6,4.99,000.00,020.3,019.7,000.0,028.6,022.0,11.8,0000.0,0001.45,0003.80,0000.90
2024-03-27 18:49:00,SystemResetWarning,0827.5,5.00,000.00,020.3,019.7,000.0,028.7,022.0,11.1,0000.0,0001.40,0003.74,0000.86
2024-03-27 18:50:00,SystemResetWarning,0827.4,5.00,000.00,020.3,019.7,000.0,028.7,022.0,11.3,0000.0,0001.33,0003.64,0000.82
2024-03-27 18:51:00,SystemResetWarning,0827.4,5.00,000.00,020.3,019.7,000.0,028.7,022.0,12.0,0000.0,0001.22,0003.37,0000.78
2024-03-27 18:52:00,SystemResetWarning,0827.4,5.00,000.00,020.3,019.7,000.0,028.7,022.0,12.0,0000.0,0001.24,0002.93,0000.77
2024-03-27 18:53:00,SystemResetWarning,0827.4,5.00,000.00,020.3,019.7,000.0,028.7,022.0,10.8,0000.0,0001.23,0002.90,0000.77
2024-03-27 18:54:00,SystemResetWarning,0827.8,5.00,000.00,020.3,019.7,000.0,028.7,022.0,11.1,0000.0,0001.24,0002.88,0000.78
2024-03-27 18:55:00,SystemResetWarning,0827.4,5.00,000.00,020.2,019.7,000.0,028.7,022.0,12.3,0000.0,0001.18,0002.81,0000.77
2024-03-27 18:56:00,SystemResetWarning,0827.5,5.00,000.00,020.2,019.7,000.0,028.7,022.0,11.3,0000.0,0001.15,0002.72,0000.74
2024-03-27 18:57:00,SystemResetWarning,0827.4,5.00,000.00,020.2,019.7,000.0,028.7,022.0,10.3,0000.0,0001.07,0002.21,0000.69
2024-03-27 18:58:00,SystemResetWarning,0827.4,5.00,000.00,020.3,019.7,000.0,028.7,022.0,10.6,0000.0,0001.03,0002.09,0000.66
2024-03-27 18:59:00,SystemResetWarning,0827.4,5.00,000.00,020.2,019.7,000.0,028.7,022.0,11.5,0000.0,0001.02,0001.92,0000.66
